Regional Weather Roundup
Issued by NWS

Home | Current Version | Previous Version | Graphics & Text | Print | Product List | Glossary On
Versions: 1 2 3 4 5 6 7 8 9 10 11 12 13 14 15 16 17 18 19 20 21 22 23 24 25 26 27 28 29 30 31 32 33 34 35 36 37 38 39 40 41 42 43 44 45 46 47 48 49 50
000
ASUS45 KCYS 250010
RWRWY

WYOMING REGIONAL WEATHER ROUNDUP
NATIONAL WEATHER SERVICE CHEYENNE WY
600 PM MDT FRI APR 24 2015

NOTE:  "FAIR" INDICATES FEW OR NO CLOUDS BELOW 12,000 FEET
WITH NO SIGNIFICANT WEATHER AND/OR OBSTRUCTIONS TO VISIBILITY.

WYZ001-250100-
YELLOWSTONE NATIONAL PARK

CITY           SKY/WX    TMP DP  RH WIND       PRES   REMARKS
LK YELLOWSTONE   N/A     40  30  67 CALM      29.73F
6HR MIN TEMP:  37; 6HR MAX TEMP:  50;

W YELLOWSTONE  NOT AVBL

$$
WYZ002>013-054>058-071-098>099-250100-
NORTHERN WYOMING

CITY           SKY/WX    TMP DP  RH WIND       PRES   REMARKS
JACKSON        CLOUDY    39  39 100 E9        29.72F WCI  33
CODY           PTSUNNY   63  30  29 E7        29.56R
GREYBULL       FAIR      70  21  15 CALM      29.50S
6HR MIN TEMP:  63; 6HR MAX TEMP:  71;

WORLAND        FAIR      67  27  22 N3        29.51F
6HR MIN TEMP:  62; 6HR MAX TEMP:  71;

SHERIDAN       FAIR      61  39  44 NE10      29.57R
6HR MIN TEMP:  61; 6HR MAX TEMP:  69;

BUFFALO        CLOUDY    60  38  43 MISG      29.60R
6HR MIN TEMP:  54; 6HR MAX TEMP:  67; 6HR PCP:  0.07;

GILLETTE       FAIR      62  35  36 SE12      29.58R
6HR MIN TEMP:  61; 6HR MAX TEMP:  67;

HULETT         FAIR      63  32  31 E12       29.59S
NEWCASTLE      FAIR      55  37  50 E5        29.60S

$$
WYZ014>020-022>026-101>103-250100-
CENTRAL WYOMING

CITY           SKY/WX    TMP DP  RH WIND       PRES   REMARKS
BIG PINEY      FAIR      50  30  46 NE9       29.72S
6HR MIN TEMP:  44; 6HR MAX TEMP:  55; 6HR PCP:  0.02;

PINEDALE       MOCLDY    45  34  65 CALM      29.73F
DUBOIS         FAIR      45  30  57 NW15      29.68R
LANDER         FAIR      55  32  41 SW16G24   29.58R
6HR MIN TEMP:  54; 6HR MAX TEMP:  66;

RIVERTON       FAIR      64  27  24 SW7       29.58S
6HR MIN TEMP:  57; 6HR MAX TEMP:  67; 6HR PCP: TRACE;

CASPER         FAIR      65  14  14 W10       29.58R
6HR MIN TEMP:  61; 6HR MAX TEMP:  68;

DOUGLAS        PTSUNNY   68  25  19 NE15G24   29.57S
6HR MIN TEMP:  63; 6HR MAX TEMP:  69;


$$
WYZ021-027>030-104>119-250100-
SOUTHERN WYOMING

CITY           SKY/WX    TMP DP  RH WIND       PRES   REMARKS
EVANSTON       LGT RAIN  44  37  76 SW20G31   29.76R
6HR MIN TEMP:  44; 6HR MAX TEMP:  58; 6HR PCP:  0.01;

KEMMERER       CLOUDY    52  32  46 W18G25    29.71R
FORT BRIDGER   MOCLDY    54  30  40 W6        29.74S
ROCK SPRINGS   FAIR      49  38  65 SW12      29.73F
6HR MIN TEMP:  41; 6HR MAX TEMP:  58; 6HR PCP:  0.03;

DIXON          CLOUDY    53  31  44 NW24G30   29.78R
RAWLINS        PTSUNNY   48  33  56 W23G31    29.70S
6HR MIN TEMP:  46; 6HR MAX TEMP:  58; 6HR PCP: TRACE;

SARATOGA       CLOUDY    50  32  50 W20       29.72R
LARAMIE        PTSUNNY   50  28  42 W12       29.71S
6HR MIN TEMP:  46; 6HR MAX TEMP:  56; 6HR PCP: TRACE;

CHEYENNE       FAIR      56  31  38 NW17G23   29.66R
6HR MIN TEMP:  55; 6HR MAX TEMP:  59;

TORRINGTON     HVY RAIN  54  42  64 W21G31    29.60R
6HR MIN TEMP:  61; 6HR MAX TEMP:  71; 6HR PCP: TRACE;

PINE BLUFFS    FAIR      52  41  66 S5        29.65F

$$


USA.gov is the U.S. government's official web portal to all federal, state and local government web resources and services.